Theta_e
324 318 321 324 324 326 327 326 330 330 333 334 332 329 329 330 336 332 333 335 336 328 326 320 315 312 311 314 314 314 313 312 312 312 312 312 312 312 312 313 314 316 320 320 320 320 321 323 326
322 313 327 326 326 333 325 325 326 328 335 334 331 330 333 336 335 335 335 338 338 334 321 319 315 313 312 314 315 314 313 313 313 313 313 313 313 313 314 315 316 318 325 328 329 329 329 330 330
317 320 321 327 328 326 325 328 336 336 335 336 336 331 332 336 336 336 335 338 339 336 321 319 316 314 314 314 316 315 314 314 314 314 314 315 315 315 315 316 317 319 330 332 333 333 333 334 333
323 324 321 326 330 329 327 330 331 331 333 335 335 332 329 332 335 335 336 338 338 330 322 319 317 316 315 314 316 315 315 314 314 315 315 316 316 317 318 319 321 323 332 334 336 336 336 336 336
325 320 324 325 327 328 329 328 327 331 335 335 333 332 330 333 334 336 336 338 337 325 322 320 319 317 315 314 315 316 316 315 315 316 316 317 318 319 319 320 322 327 334 336 337 337 338 338 338
323 320 325 326 325 327 326 326 326 334 335 335 335 330 331 330 336 337 337 337 337 329 323 320 317 317 317 316 314 316 316 316 316 316 317 318 319 320 321 321 323 328 336 337 338 338 336 334 333
324 321 325 325 326 327 326 325 328 327 330 333 329 331 329 331 336 337 335 336 337 332 324 321 319 317 317 317 315 316 317 317 317 317 318 318 319 321 322 322 323 325 329 335 338 338 334 333 332
325 325 329 324 325 326 325 326 326 328 330 328 329 331 330 327 336 337 338 338 337 333 326 323 320 318 317 316 317 314 316 317 317 317 318 318 320 321 322 323 325 325 327 330 335 335 329 330 328
324 327 327 326 325 325 322 323 325 327 329 328 328 329 328 331 332 335 340 341 339 336 332 325 322 320 318 317 317 316 315 317 317 318 318 319 320 322 322 324 325 325 326 329 332 332 329 330 330
330 329 328 325 325 325 328 325 324 327 327 328 328 328 330 330 330 328 328 331 338 340 338 334 328 324 321 320 319 319 316 316 318 318 319 319 321 321 322 324 325 325 326 330 332 333 331 331 330
331 334 329 328 329 328 327 327 326 327 326 327 329 328 327 328 327 326 327 328 331 336 337 337 337 332 326 323 323 322 322 321 321 319 320 321 322 323 325 325 325 326 331 334 335 335 334 331 331
330 332 331 330 330 333 333 331 330 329 327 327 327 328 327 326 325 324 325 329 327 327 331 334 336 337 334 329 326 324 330 328 327 322 324 324 325 324 325 325 324 326 334 335 336 336 335 333 331
321 326 329 332 332 330 328 329 329 329 328 327 327 328 325 325 324 326 327 327 328 325 326 327 333 337 338 336 331 329 329 330 330 329 327 326 327 324 325 326 325 328 336 337 337 336 336 333 331
316 319 323 324 323 323 325 325 324 325 326 326 324 324 323 322 322 322 323 325 326 328 329 327 328 332 338 338 337 335 334 334 333 331 330 330 328 324 324 325 324 330 338 336 334 335 334 332 332
314 315 316 316 317 318 321 322 324 324 323 324 324 324 323 323 322 321 325 326 327 328 328 327 327 331 336 337 338 338 337 337 336 334 332 332 330 327 324 324 325 336 338 334 334 335 333 333 333
317 317 318 319 318 318 320 324 324 323 323 324 324 323 323 322 322 324 325 326 326 326 327 327 328 329 332 335 337 338 338 338 338 337 335 333 332 331 329 327 329 339 336 336 336 334 332 333 333
314 320 320 321 320 321 321 324 323 323 323 323 322 323 323 323 321 322 324 325 326 326 326 327 327 327 329 334 338 339 339 339 339 338 338 334 333 334 333 331 335 336 335 336 334 334 332 332 332
317 317 319 321 322 322 323 322 321 322 322 322 321 322 322 322 322 322 323 324 324 326 326 326 327 326 328 335 340 340 340 341 341 341 339 338 338 339 336 335 338 335 335 335 334 334 333 333 332
315 317 319 320 320 323 323 323 323 322 320 321 321 321 321 320 320 321 322 324 324 325 324 326 327 328 335 338 339 340 341 341 341 341 341 340 341 339 338 339 337 334 335 334 334 334 333 332 331
311 312 313 315 316 316 317 320 318 319 321 321 321 321 321 321 319 320 321 322 325 325 326 327 329 332 338 340 340 341 341 341 342 342 342 342 340 339 340 335 333 335 335 334 334 333 331 331 330
311 312 313 315 315 314 314 316 315 315 315 316 317 317 318 319 319 319 318 321 325 328 330 334 334 338 342 342 343 340 337 336 335 336 337 335 334 339 333 332 334 335 335 333 331 331 330 328 328
309 311 313 313 313 315 314 317 314 314 314 314 315 316 314 316 318 317 318 319 328 330 334 339 341 344 344 343 342 339 336 334 334 334 334 334 333 334 334 335 335 334 333 332 331 330 330 329 327
307 308 310 312 313 312 313 312 314 314 314 315 315 315 314 316 315 315 316 319 327 334 338 342 344 345 345 343 342 340 338 336 335 334 334 334 334 336 336 336 334 332 331 331 330 329 329 329 327
307 308 310 310 311 313 313 313 313 313 313 314 314 314 316 315 315 315 318 328 334 337 343 344 345 344 344 344 342 341 339 336 335 334 335 335 335 335 334 334 333 332 331 330 329 329 328 329 328
305 304 309 311 312 315 313 313 314 313 315 314 313 313 314 314 313 322 331 332 334 337 341 343 344 341 342 341 340 338 336 335 335 334 334 335 334 333 333 332 332 331 330 330 330 329 329 328 328
302 303 307 313 316 313 314 316 315 314 315 315 315 313 313 313 313 322 331 332 335 337 338 339 341 339 338 336 335 334 334 333 333 333 333 333 333 332 332 332 332 330 329 330 330 329 329 329 328
308 304 304 305 308 310 313 314 315 315 314 315 313 313 312 313 315 329 332 333 336 337 337 337 337 336 336 334 333 333 333 333 333 333 333 333 333 331 329 330 329 329 328 329 329 328 328 328 328
306 308 305 303 309 313 313 314 316 315 314 314 313 313 313 313 325 333 335 336 336 336 337 337 337 335 334 334 333 332 331 333 333 332 333 333 331 330 330 329 329 329 329 329 328 328 327 329 329
308 312 312 305 306 311 313 314 312 314 314 315 314 314 317 321 333 335 336 336 335 336 335 335 334 334 333 333 332 332 334 333 332 331 332 331 330 330 330 330 329 330 330 329 329 328 328 328 328
308 312 311 310 310 309 311 312 312 313 311 312 313 314 330 334 333 336 337 335 335 335 334 334 334 334 333 332 331 332 332 332 331 332 332 331 331 331 330 330 330 330 329 329 330 329 327 327 327
Wind_Speed
4 4 4 2 3 4 4 6 3 5 1 4 3 8 5 2 6 5 2 28 17 29 36 34 30 28 26 23 22 21 20 20 19 17 16 15 14 13 12 11 9 7 7 7 6 5 3 2 2
6 6 1 2 4 1 5 5 7 6 3 6 6 5 4 1 2 1 9 29 18 28 37 35 32 30 28 26 25 23 22 21 20 19 17 15 13 12 11 10 9 8 7 6 6 5 3 3 2
9 4 2 4 4 6 5 6 2 6 8 3 2 4 8 3 2 6 6 30 23 30 36 36 34 33 31 29 27 25 24 22 21 20 19 17 16 14 13 12 11 10 10 8 7 6 5 5 4
6 2 2 2 9 6 5 3 4 8 8 6 1 6 2 1 7 13 15 28 28 33 37 36 36 35 33 31 28 27 26 24 22 20 18 17 15 13 13 13 12 11 11 10 8 7 7 7 7
3 3 2 3 6 5 4 5 3 10 5 3 2 2 0 0 5 13 27 30 30 34 37 37 36 36 34 32 31 30 28 26 24 22 21 19 17 15 14 13 12 11 13 11 10 9 8 10 10
2 2 1 6 5 4 6 5 5 4 7 4 4 5 3 3 12 19 28 28 30 33 37 38 38 36 36 35 34 33 31 29 28 25 23 21 19 18 15 13 11 10 11 12 11 11 9 12 12
6 3 4 3 3 3 4 4 2 4 6 5 8 5 3 4 18 20 23 27 30 33 37 37 39 39 37 37 36 35 34 32 30 29 27 25 22 19 17 14 12 10 10 10 10 10 10 11 12
4 4 4 4 4 4 4 1 2 6 8 7 4 2 4 6 23 23 26 27 28 31 35 38 40 41 41 41 39 38 37 36 34 32 30 27 25 22 19 17 14 12 10 10 10 10 9 11 12
5 3 5 6 6 5 6 5 2 5 4 6 6 4 8 12 21 20 16 22 26 30 31 35 39 41 43 44 43 41 40 38 36 35 33 30 29 25 22 20 16 14 12 12 10 12 10 12 12
5 5 10 7 10 3 6 9 8 4 3 5 5 5 1 6 13 14 12 18 28 32 36 37 40 43 45 45 44 42 42 42 42 40 37 35 33 29 24 22 18 16 15 14 13 13 12 12 12
7 9 18 8 9 3 6 8 5 8 8 7 3 11 8 2 10 10 18 23 34 44 36 41 43 43 46 46 46 45 46 46 45 43 41 38 35 30 27 24 21 19 17 16 17 17 16 15 14
4 13 15 16 11 4 14 6 10 14 12 16 14 7 8 11 10 9 13 26 28 29 39 43 46 46 47 46 46 47 43 45 45 46 43 40 38 34 30 28 23 22 19 19 18 19 18 17 15
15 7 9 18 15 10 10 17 14 19 14 13 15 15 12 11 11 19 21 21 23 23 26 33 41 45 49 48 46 45 46 46 45 42 43 42 41 37 32 30 25 23 22 21 20 21 20 18 16
2 11 15 11 10 6 12 20 15 14 19 14 11 11 11 11 12 11 17 21 24 26 32 27 32 40 43 47 48 49 43 40 39 42 42 42 41 36 32 30 28 25 23 20 19 19 19 19 17
4 7 10 10 4 7 1 23 24 18 15 16 18 17 10 10 10 11 21 25 28 29 32 28 30 36 37 43 46 45 42 39 39 41 41 38 38 35 33 31 28 25 23 20 18 19 19 19 20
4 4 14 13 11 6 7 29 11 11 14 19 12 9 9 12 9 21 27 31 37 38 34 35 27 33 37 40 41 42 40 38 37 37 36 34 32 33 30 29 28 23 20 19 20 20 18 20 19
5 16 17 9 5 8 16 30 14 15 12 16 13 14 14 15 11 20 33 39 43 46 38 35 28 33 35 36 37 35 35 34 34 32 30 29 27 27 26 26 26 20 17 19 21 20 19 19 19
10 11 11 11 4 11 15 28 12 10 13 17 17 17 19 19 18 24 33 39 41 40 34 34 28 25 30 33 30 29 28 28 27 26 27 25 24 22 22 23 23 20 18 18 20 20 20 21 21
4 9 3 8 10 14 19 24 20 15 11 17 18 18 18 11 11 23 30 37 34 35 27 29 26 26 27 26 25 24 27 25 25 23 22 22 21 20 22 22 23 20 19 19 20 20 20 21 18
6 5 3 7 8 4 10 17 10 10 13 15 18 17 16 14 10 16 20 24 32 30 25 28 29 27 26 25 24 16 24 21 20 19 19 19 19 21 22 23 24 22 21 20 20 20 17 13 14
6 11 8 5 9 17 12 18 12 12 8 12 17 10 10 9 14 15 10 18 23 24 25 25 24 24 23 21 20 21 20 21 18 20 21 21 21 25 24 24 25 21 19 18 16 15 17 9 12
11 4 5 8 5 10 2 17 18 21 23 20 19 18 9 11 14 10 11 9 18 24 18 17 18 21 21 25 27 30 20 17 15 21 19 20 20 24 25 24 22 16 14 13 11 10 11 8 9
11 10 9 11 6 4 7 5 23 8 22 17 15 17 13 18 11 13 11 12 16 16 17 17 20 22 24 27 28 28 23 16 17 15 15 16 15 18 19 18 15 13 12 11 9 9 11 12 10
1 4 7 7 3 6 8 9 24 9 20 19 21 11 16 10 10 10 7 6 10 16 19 23 24 25 25 23 22 21 18 16 15 14 14 14 15 15 14 13 11 8 8 9 8 9 10 11 13
3 4 1 1 3 10 12 9 22 6 3 5 8 9 11 11 9 7 7 7 11 19 22 25 27 26 23 21 19 19 18 17 18 18 17 15 13 12 11 11 10 8 7 8 9 10 11 12 14
5 8 4 6 4 7 6 13 16 12 23 21 19 13 10 10 8 9 9 8 10 15 22 22 28 27 23 22 21 18 19 19 19 18 15 11 9 7 8 8 8 7 7 9 9 10 10 11 12
2 4 7 3 3 2 6 10 18 20 15 14 10 9 10 9 9 9 7 7 13 16 19 27 28 27 26 24 24 22 21 20 18 14 10 8 7 7 8 8 7 7 7 7 7 8 9 9 9
6 4 3 1 5 5 6 8 12 6 19 20 15 9 11 10 9 9 10 11 14 20 24 27 28 30 29 27 23 19 18 16 14 12 9 8 8 9 9 8 7 8 6 7 6 6 8 9 10
1 3 4 3 5 4 3 6 7 12 9 5 9 11 12 10 8 11 11 12 18 21 25 27 29 31 28 24 20 18 17 14 12 9 8 10 11 11 9 8 8 7 5 6 7 7 7 7 8
4 4 3 6 7 11 1 8 8 3 7 7 9 10 9 0 6 10 13 12 15 19 22 23 28 29 25 21 20 17 15 15 11 9 10 11 11 8 8 8 8 7 7 6 7 7 8 8 9
Wind_Direction
231 237 181 84 82 71 263 259 255 268 234 230 209 126 190 175 168 211 220 178 186 183 182 183 181 179 178 175 174 172 168 165 162 160 161 161 160 161 163 165 169 171 169 173 182 190 204 229 254
169 166 226 87 116 140 259 248 253 248 269 263 186 106 105 275 168 231 131 177 183 183 182 184 183 183 184 182 181 179 178 175 171 168 168 169 168 169 168 171 172 178 184 187 197 204 207 228 250
162 158 126 151 181 189 213 218 350 302 287 271 296 115 147 202 124 182 181 180 183 186 186 187 186 189 190 188 187 186 185 183 180 176 175 175 174 174 177 180 180 182 190 199 208 221 231 241 249
151 57 345 163 227 251 211 258 327 295 281 197 85 70 81 236 176 174 186 180 183 186 189 191 191 193 195 193 192 192 192 190 189 186 185 183 181 183 184 186 185 188 194 205 217 227 240 248 253
128 79 228 226 251 263 247 252 229 271 277 27 39 99 243 25 234 182 178 183 186 189 194 196 197 197 198 198 198 199 198 195 194 193 194 193 190 191 196 195 193 198 198 204 218 232 244 254 253
97 108 201 237 232 244 260 266 311 311 267 297 119 119 191 252 197 185 180 187 196 195 197 201 201 202 202 203 203 205 203 201 200 200 201 201 200 199 202 205 206 207 209 212 216 228 241 257 264
134 103 237 249 258 261 248 212 250 281 291 285 145 115 227 216 202 200 194 199 203 202 201 203 205 206 209 207 209 209 208 207 205 206 206 206 207 208 210 213 213 219 219 226 231 235 247 258 263
130 113 273 244 220 243 240 230 184 44 330 312 120 164 213 226 201 202 200 205 206 211 210 205 208 209 212 213 213 213 214 212 211 211 210 211 211 211 214 221 220 226 229 230 243 244 255 263 267
139 119 239 238 181 232 322 19 151 334 5 354 351 164 215 208 198 200 207 213 216 218 221 215 214 215 216 216 216 217 218 218 217 217 216 214 215 214 215 222 227 232 236 238 246 253 256 263 270
165 170 225 217 224 270 317 310 335 325 25 300 326 293 330 245 182 179 194 217 220 224 224 222 221 219 220 220 219 219 219 221 220 219 218 217 217 217 218 223 229 235 239 242 247 253 253 257 267
194 214 231 236 228 249 278 285 297 306 294 207 261 293 319 260 219 209 209 210 218 224 224 228 230 226 223 221 221 222 223 221 222 222 221 220 220 218 219 225 228 235 235 242 248 247 245 251 261
213 224 237 253 241 250 262 276 281 274 263 297 293 266 289 275 273 212 231 242 240 229 232 235 234 229 227 224 222 224 221 221 223 223 223 220 221 219 220 225 229 237 236 240 249 245 243 248 257
243 223 242 251 252 253 272 261 256 264 266 269 279 276 263 257 252 253 260 270 257 248 243 234 231 229 230 225 224 225 226 224 222 223 224 222 224 222 221 226 231 236 237 240 246 245 242 244 252
185 216 246 264 264 252 267 271 265 263 270 273 259 255 258 246 248 262 270 271 273 269 267 253 236 233 226 228 227 228 226 224 223 224 225 225 226 226 225 229 233 236 239 237 241 238 238 242 250
255 283 272 232 247 250 345 269 253 249 267 263 262 264 250 255 252 237 266 279 276 279 278 271 249 231 224 226 228 227 229 226 224 225 227 228 227 228 228 231 236 234 231 237 235 234 237 244 253
218 203 242 253 216 234 169 256 258 229 236 255 266 262 267 272 269 284 284 281 283 282 272 271 243 222 222 226 227 226 228 229 225 226 227 229 228 230 228 232 234 232 235 233 229 230 244 239 246
242 240 232 255 199 202 201 259 248 255 255 266 273 276 281 282 285 283 284 278 279 281 274 257 227 223 224 226 226 225 227 225 225 224 227 225 222 224 222 226 226 223 232 228 224 227 237 231 239
218 229 237 234 200 215 246 258 244 272 278 274 271 273 272 270 272 272 272 272 277 281 273 248 222 228 228 222 217 217 219 222 225 223 218 216 214 218 209 221 215 222 231 222 223 226 232 244 250
14 251 0 265 220 212 237 258 260 252 242 253 257 258 262 256 264 273 270 274 279 276 256 232 226 228 217 204 194 199 200 204 209 212 212 208 208 212 212 214 222 223 224 231 233 229 235 245 245
266 275 272 295 296 252 278 276 281 262 255 249 255 261 264 272 278 274 273 273 274 268 249 239 227 220 211 204 195 195 192 193 194 195 200 200 196 206 204 222 227 228 230 234 238 243 248 246 226
220 241 255 253 326 300 306 285 279 263 246 260 267 253 250 237 259 270 274 255 257 248 235 219 204 202 197 185 168 154 150 145 158 170 176 186 207 201 217 224 222 233 241 252 258 257 240 218 200
253 199 240 237 215 261 209 286 276 276 272 261 260 260 252 243 251 254 260 267 241 238 218 209 187 180 176 179 166 159 155 153 165 174 184 197 204 210 219 218 226 247 255 252 246 247 237 213 187
251 253 257 230 236 262 242 308 270 217 263 253 245 256 252 251 249 254 251 242 246 208 187 180 170 164 163 172 172 168 168 155 160 167 178 193 197 204 206 215 230 250 246 246 247 233 221 215 204
141 205 220 227 126 250 209 192 276 241 245 249 245 230 248 251 248 250 265 206 170 172 166 165 159 158 160 167 167 175 170 164 160 168 173 169 172 184 204 224 241 236 236 230 229 229 222 218 218
165 80 178 168 201 230 192 188 238 254 241 231 235 240 247 250 258 223 198 178 156 158 158 160 159 155 156 158 164 167 164 164 168 174 174 169 177 198 218 228 231 220 222 225 229 223 223 226 229
179 163 177 185 187 226 153 225 237 230 261 265 266 273 258 261 247 230 200 172 155 151 150 152 153 151 153 152 151 154 163 160 162 163 167 183 204 217 208 202 194 202 223 223 224 228 222 224 229
194 164 201 12 235 233 233 274 280 274 273 283 273 275 272 257 235 209 155 151 144 146 146 149 150 152 150 147 143 141 145 151 157 162 175 187 192 188 175 172 183 203 205 201 208 210 210 211 214
167 191 83 279 213 232 253 256 236 224 237 265 278 295 286 260 207 162 150 142 138 142 149 153 153 150 148 143 145 146 152 150 154 164 170 175 171 167 163 171 184 184 199 204 203 205 206 219 219
239 194 204 190 204 231 293 257 203 216 255 261 288 294 295 273 171 151 140 133 137 142 147 149 148 148 148 148 149 152 152 156 163 173 171 163 160 158 168 184 183 191 192 205 214 219 206 198 191
249 210 198 213 230 238 313 259 316 234 346 326 311 316 302 113 134 145 138 135 142 143 145 150 154 151 154 153 154 156 165 169 172 170 160 163 169 174 182 184 190 214 211 212 223 207 194 183 178